sat.trackr.live / text

‹ back to catalog

KINEIS-3B

NORAD 61224 · 2024-172E

PAYLOAD ACTIVE UNKNOWN

§ Identity

Operator
Country
FR
Launch date
2024-09-20
Launch site
RLLB
Launch vehicle
Mass (kg)
RCS (m²)

External: N2YO · Heavens-Above · Gunter

§ Orbital elements

Epoch: 2026-09-22T17:50:32.453088Z

Period
97.80 min
Inclination
98.0394°
Eccentricity
0.0003138
Mean motion
14.72344454 rev/d
Perigee alt
651.4 km
Apogee alt
655.8 km
Semi-major
7,031.7 km
B*
1.9442e-4
RAAN
354.6935°
Arg perigee
109.9139°
Mean anomaly
250.2407°
Rev number
10,770

§ Raw data

KINEIS-3B1 61224U 24172E   26265.74343117  .00001180  00000+0  19442-3 0  99942 61224  98.0394 354.6935 0003138 109.9139 250.2407 14.72344454107705

JSON: /api/v1/satellites/61224 · /tle

For live sub-satellite position, see the globe view (requires WebGL).

§ Visibility from observer

Set your observer location to see the next 7 days of passes ≥ 10°. The values pass through the URL so the page stays shareable.

No JS? Fill the form by hand. The geolocation button needs JavaScript.

§ Radio — SatNOGS DB

ModeDescriptionDownlinkUplink
BPSK S-band telemetry 2.265 GHz
FM Telemetry 400.662 MHz

2 transmitters · refreshed weekly from db.satnogs.org